When you browse on this site, cookies collect data to enhance your experience and personalize the content and advertising you see.
Visit our Privacy Policy to learn more. By continuing to use the site, you agree to this use of cookies and data.

Meteo pe oră la Zvoyskie Vyselki

Astăzi, 13 Iulie, Luni

Timp Temperatura Precipitaţii Vânt Presiune Umiditate
00:00 +20°C° 0 mm 1 m/s 744 mmHg 84%
01:00 +19°C° 0 mm 1 m/s 744 mmHg 85%
02:00 +19°C° 0 mm 1 m/s 744 mmHg 86%
03:00 +18°C° 0 mm 1 m/s 744 mmHg 87%
04:00 +19°C° 0 mm 1 m/s 743 mmHg 87%
05:00 +19°C° 0 mm 1 m/s 743 mmHg 88%
06:00 +20°C° 0 mm 1 m/s 743 mmHg 88%
07:00 +21°C° 0 mm 1 m/s 743 mmHg 84%
08:00 +22°C° 0 mm 1 m/s 743 mmHg 81%
09:00 +23°C° 0 mm 2 m/s 743 mmHg 77%
10:00 +24°C° 0.1 mm 2 m/s 743 mmHg 74%
11:00 +25°C° 0.1 mm 2 m/s 742 mmHg 71%
12:00 +26°C° 0.1 mm 2 m/s 742 mmHg 68%
13:00 +26°C° 1 mm 2 m/s 742 mmHg 71%
14:00 +25°C° 1 mm 2 m/s 742 mmHg 73%
15:00 +25°C° 1 mm 2 m/s 742 mmHg 75%
16:00 +24°C° 0.5 mm 2 m/s 741 mmHg 78%
17:00 +24°C° 0.5 mm 2 m/s 741 mmHg 81%
18:00 +23°C° 0.5 mm 1 m/s 741 mmHg 84%
19:00 +22°C° 0.1 mm 1 m/s 741 mmHg 86%
20:00 +20°C° 0.1 mm 2 m/s 741 mmHg 89%
21:00 +19°C° 0.1 mm 2 m/s 741 mmHg 91%
22:00 +19°C° 0.1 mm 2 m/s 741 mmHg 92%
23:00 +18°C° 0.1 mm 3 m/s 741 mmHg 93%

Mâine, 14 Iulie, Marţi

Timp Temperatura Precipitaţii Vânt Presiune Umiditate
00:00 +18°C° 0.1 mm 3 m/s 740 mmHg 94%
01:00 +18°C° 0.3 mm 3 m/s 740 mmHg 95%
02:00 +18°C° 0.3 mm 4 m/s 740 mmHg 96%
03:00 +18°C° 0.3 mm 4 m/s 740 mmHg 97%
04:00 +18°C° 0.5 mm 4 m/s 739 mmHg 97%
05:00 +18°C° 0.5 mm 4 m/s 739 mmHg 97%
06:00 +18°C° 0.5 mm 4 m/s 738 mmHg 97%
07:00 +18°C° 0.1 mm 4 m/s 738 mmHg 96%
08:00 +18°C° 0.1 mm 3 m/s 739 mmHg 96%
09:00 +19°C° 0.1 mm 3 m/s 739 mmHg 96%
10:00 +19°C° 0.3 mm 3 m/s 739 mmHg 95%
11:00 +19°C° 0.3 mm 3 m/s 739 mmHg 95%
12:00 +19°C° 0.3 mm 4 m/s 739 mmHg 94%
13:00 +20°C° 0.6 mm 4 m/s 738 mmHg 95%
14:00 +20°C° 0.6 mm 4 m/s 738 mmHg 95%
15:00 +20°C° 0.6 mm 4 m/s 738 mmHg 95%
16:00 +20°C° 1.9 mm 4 m/s 737 mmHg 96%
17:00 +19°C° 1.9 mm 3 m/s 737 mmHg 96%
18:00 +19°C° 1.9 mm 3 m/s 737 mmHg 97%
19:00 +19°C° 1.1 mm 2 m/s 736 mmHg 97%
20:00 +19°C° 1.1 mm 2 m/s 736 mmHg 97%
21:00 +19°C° 1.1 mm 1 m/s 735 mmHg 97%
22:00 +19°C° 0.1 mm 1 m/s 735 mmHg 97%
23:00 +19°C° 0.1 mm 1 m/s 735 mmHg 97%

Poimâine, 15 Iulie, Miercuri

Timp Temperatura Precipitaţii Vânt Presiune Umiditate
00:00 +19°C° 0.1 mm 1 m/s 735 mmHg 97%
01:00 +18°C° 0 mm 1 m/s 735 mmHg 97%
02:00 +17°C° 0 mm 2 m/s 735 mmHg 97%
03:00 +17°C° 0 mm 2 m/s 734 mmHg 97%
04:00 +17°C° 0 mm 2 m/s 734 mmHg 97%
05:00 +17°C° 0 mm 3 m/s 734 mmHg 97%
06:00 +18°C° 0 mm 3 m/s 734 mmHg 97%
07:00 +18°C° 0.1 mm 4 m/s 734 mmHg 96%
08:00 +18°C° 0.1 mm 4 m/s 734 mmHg 95%
09:00 +17°C° 0.1 mm 5 m/s 735 mmHg 94%
10:00 +17°C° 0.3 mm 5 m/s 735 mmHg 92%
11:00 +17°C° 0.3 mm 5 m/s 735 mmHg 90%
12:00 +19°C° 0.3 mm 5 m/s 735 mmHg 89%
13:00 +19°C° 0.6 mm 5 m/s 735 mmHg 86%
14:00 +20°C° 0.6 mm 5 m/s 735 mmHg 84%
15:00 +20°C° 0.6 mm 5 m/s 735 mmHg 82%
16:00 +20°C° 0.9 mm 5 m/s 735 mmHg 83%
17:00 +20°C° 0.9 mm 4 m/s 735 mmHg 85%
18:00 +19°C° 0.9 mm 4 m/s 735 mmHg 86%
19:00 +18°C° 0.5 mm 4 m/s 735 mmHg 89%
20:00 +17°C° 0.5 mm 4 m/s 735 mmHg 92%
21:00 +15°C° 0.5 mm 4 m/s 736 mmHg 95%
22:00 +15°C° 0 mm 5 m/s 736 mmHg 95%
23:00 +15°C° 0 mm 5 m/s 736 mmHg 95%

16 Iulie, Joi

Timp Temperatura Precipitaţii Vânt Presiune Umiditate
00:00 +15°C° 0 mm 5 m/s 736 mmHg 95%
01:00 +15°C° 0.1 mm 5 m/s 736 mmHg 95%
02:00 +15°C° 0.1 mm 5 m/s 736 mmHg 94%
03:00 +15°C° 0.1 mm 5 m/s 736 mmHg 94%
04:00 +15°C° 0.1 mm 5 m/s 736 mmHg 94%
05:00 +14°C° 0.1 mm 5 m/s 737 mmHg 94%
06:00 +14°C° 0.1 mm 6 m/s 737 mmHg 95%
07:00 +14°C° 0 mm 6 m/s 737 mmHg 94%
08:00 +14°C° 0 mm 5 m/s 737 mmHg 94%
09:00 +14°C° 0 mm 5 m/s 738 mmHg 93%
10:00 +15°C° 0 mm 5 m/s 738 mmHg 92%
11:00 +15°C° 0 mm 5 m/s 738 mmHg 91%
12:00 +15°C° 0 mm 5 m/s 738 mmHg 90%
13:00 +15°C° 0.1 mm 5 m/s 739 mmHg 89%
14:00 +15°C° 0.1 mm 6 m/s 739 mmHg 89%
15:00 +15°C° 0.1 mm 6 m/s 739 mmHg 88%
16:00 +15°C° 0 mm 6 m/s 739 mmHg 88%
17:00 +15°C° 0 mm 6 m/s 739 mmHg 88%
18:00 +15°C° 0 mm 6 m/s 739 mmHg 88%
19:00 +15°C° 0 mm 5 m/s 739 mmHg 88%
20:00 +15°C° 0 mm 5 m/s 739 mmHg 88%
21:00 +14°C° 0 mm 5 m/s 739 mmHg 88%
22:00 +14°C° 0 mm 5 m/s 739 mmHg 89%
23:00 +14°C° 0 mm 5 m/s 739 mmHg 90%

17 Iulie, Vineri

Timp Temperatura Precipitaţii Vânt Presiune Umiditate
00:00 +14°C° 0 mm 5 m/s 739 mmHg 91%
01:00 +14°C° 0 mm 5 m/s 739 mmHg 91%
02:00 +14°C° 0 mm 5 m/s 739 mmHg 91%
03:00 +14°C° 0 mm 5 m/s 739 mmHg 92%
04:00 +14°C° 0 mm 5 m/s 739 mmHg 92%
05:00 +14°C° 0 mm 5 m/s 739 mmHg 92%
06:00 +14°C° 0 mm 4 m/s 740 mmHg 92%
07:00 +14°C° 0.1 mm 5 m/s 740 mmHg 93%
08:00 +14°C° 0.1 mm 5 m/s 740 mmHg 93%
09:00 +14°C° 0.1 mm 5 m/s 740 mmHg 93%
10:00 +14°C° 0 mm 5 m/s 740 mmHg 92%
11:00 +15°C° 0 mm 5 m/s 740 mmHg 91%
12:00 +15°C° 0 mm 5 m/s 741 mmHg 90%
13:00 +15°C° 0 mm 5 m/s 741 mmHg 88%
14:00 +16°C° 0 mm 5 m/s 741 mmHg 86%
15:00 +17°C° 0 mm 5 m/s 741 mmHg 85%
16:00 +18°C° 0 mm 4 m/s 741 mmHg 84%
17:00 +19°C° 0 mm 4 m/s 741 mmHg 83%
18:00 +19°C° 0 mm 4 m/s 741 mmHg 82%
19:00 +18°C° 0 mm 3 m/s 742 mmHg 85%
20:00 +17°C° 0 mm 3 m/s 742 mmHg 89%
21:00 +16°C° 0 mm 2 m/s 742 mmHg 92%
22:00 +15°C° 0 mm 2 m/s 742 mmHg 93%
23:00 +15°C° 0 mm 2 m/s 742 mmHg 94%

18 Iulie, Sâmbătă

Timp Temperatura Precipitaţii Vânt Presiune Umiditate
00:00 +14°C° 0 mm 2 m/s 742 mmHg 94%
01:00 +14°C° 0 mm 2 m/s 743 mmHg 95%
02:00 +14°C° 0 mm 2 m/s 743 mmHg 95%
03:00 +13°C° 0 mm 2 m/s 743 mmHg 95%
04:00 +14°C° 0 mm 2 m/s 743 mmHg 95%
05:00 +14°C° 0 mm 2 m/s 743 mmHg 95%
06:00 +14°C° 0 mm 2 m/s 743 mmHg 95%
07:00 +16°C° 0 mm 2 m/s 743 mmHg 89%
08:00 +17°C° 0 mm 2 m/s 743 mmHg 84%
09:00 +19°C° 0 mm 2 m/s 744 mmHg 79%
10:00 +20°C° 0 mm 2 m/s 744 mmHg 75%
11:00 +21°C° 0 mm 2 m/s 744 mmHg 71%
12:00 +22°C° 0 mm 3 m/s 744 mmHg 67%
13:00 +21°C° 0 mm 2 m/s 744 mmHg 72%
14:00 +21°C° 0 mm 2 m/s 744 mmHg 76%
15:00 +20°C° 0 mm 2 m/s 744 mmHg 81%
16:00 +20°C° 0 mm 2 m/s 744 mmHg 80%
17:00 +22°C° 0 mm 1 m/s 743 mmHg 80%
18:00 +22°C° 0 mm 1 m/s 743 mmHg 79%
19:00 +21°C° 0 mm 1 m/s 743 mmHg 82%
20:00 +20°C° 0 mm 1 m/s 743 mmHg 85%
21:00 +19°C° 0 mm 1 m/s 743 mmHg 87%
22:00 +18°C° 0 mm 1 m/s 743 mmHg 89%
23:00 +18°C° 0 mm 1 m/s 743 mmHg 90%
Arată mai mult